Worland, WY

9:28 PM MST on November 16, 2019 (GMT -0700)
Worland Municipal

Weather History for KWRL - October, 2019

Change the Weather History Date:

Monday, October 21, 2019

  Actual Average Record
Temperature  
Mean Temperature 39 °F 44 °F  
Max Temperature 50 °F 58 °F 85 °F (1992)
Min Temperature 28 °F 29 °F 18 °F (1990)
Degree Days  
Heating Degree Days 26 21  
Month to date heating degree days 486 368  
Since 1 July heating degree days 701 625  
Cooling Degree Days 0 0  
Month to date cooling degree days 0 0  
Year to date cooling degree days 516 535  
Moisture  
Dew Point 29 °F    
Average Humidity 68    
Maximum Humidity 96    
Minimum Humidity 39    
Precipitation  
Precipitation T in 0.02 in 0.09 in (1978)
Month to date precipitation 0.34 0.55  
Year to date precipitation 10.90 6.85  
Sea Level Pressure  
Sea Level Pressure 30.08 in    
Wind  
Wind Speed 5 mph (SSW)    
Max Wind Speed 17 mph    
Max Gust Speed 25 mph    
Visibility 10 miles    
Events      
T = Trace of Precipitation, MM = Missing Value Source: NWS Daily Summary

Daily Weather History Graph

Daily Weather History Graph

Search for Another Location

Airport or City:

Astronomy

Oct. 21, 2019 Rise Set
Actual Time 7:33 AM MDT 6:18 PM MDT
Civil Twilight 7:04 AM MDT 6:47 PM MDT
Nautical Twilight 6:30 AM MDT 7:21 PM MDT
Astronomical Twilight 5:57 AM MDT 7:54 PM MDT
Moon No Moon Rise 3:01 PM MDT (10/21)
Length of Visible Light 11h 43m
Length of Day
10h 44m
Waning Gibbous, 47% of the Moon is Illuminated
Oct 21
Waning Gibbous
Oct 27
New
Nov 4
First Quarter
Nov 12
Full
Nov 19
Last Quarter

Hourly Weather History & Observations

Time (MDT) Temp. Windchill Dew Point Humidity Pressure Visibility Wind Dir Wind Speed Gust Speed Precip Events Conditions
12:53 AM 33.1 °F 28.7 °F 30.9 °F 92% 29.99 in 10.0 mi East 4.6 mph - N/A   Overcast
1:53 AM 33.1 °F 28.7 °F 30.9 °F 92% 29.98 in 10.0 mi SE 4.6 mph - N/A   Overcast
2:53 AM 34.0 °F 31.0 °F 30.9 °F 89% 29.97 in 10.0 mi ESE 3.5 mph - N/A   Overcast
3:53 AM 33.1 °F - 32.0 °F 96% 29.97 in 10.0 mi Calm Calm - N/A   Overcast
4:53 AM 32.0 °F 27.5 °F 28.9 °F 88% 29.97 in 10.0 mi SE 4.6 mph - N/A   Mostly Cloudy
5:53 AM 32.0 °F 28.7 °F 28.9 °F 88% 30.00 in 10.0 mi SW 3.5 mph - N/A   Mostly Cloudy
6:53 AM 28.9 °F 21.9 °F 27.0 °F 92% 30.04 in 10.0 mi South 6.9 mph - N/A   Mostly Cloudy
7:53 AM 30.9 °F 24.3 °F 28.0 °F 89% 30.05 in 10.0 mi South 6.9 mph - N/A   Overcast
8:53 AM 33.1 °F 30.0 °F 28.9 °F 85% 30.08 in 10.0 mi South 3.5 mph - N/A   Overcast
9:53 AM 36.0 °F 33.3 °F 32.0 °F 86% 30.08 in 10.0 mi SSW 3.5 mph - N/A   Overcast
10:53 AM 39.0 °F 35.7 °F 33.1 °F 79% 30.08 in 10.0 mi Variable 4.6 mph - N/A   Clear
11:53 AM 44.1 °F - 32.0 °F 63% 30.07 in 10.0 mi Calm Calm - N/A   Clear
12:53 PM 46.0 °F 44.8 °F 28.0 °F 50% 30.07 in 10.0 mi WSW 3.5 mph - N/A   Clear
1:53 PM 48.0 °F - 27.0 °F 44% 30.05 in 10.0 mi North - - N/A   Partly Cloudy
2:53 PM 48.9 °F - 25.0 °F 39% 30.05 in 10.0 mi North - - N/A   Partly Cloudy
3:53 PM 46.9 °F - 25.0 °F 42% 30.08 in 10.0 mi NNE 8.1 mph - N/A   Mostly Cloudy
4:53 PM 45.0 °F 40.1 °F 28.9 °F 53% 30.12 in 10.0 mi NW 9.2 mph - 0.00 in   Overcast
5:53 PM 45.0 °F 42.6 °F 28.9 °F 53% 30.14 in 10.0 mi WNW 4.6 mph - N/A   Mostly Cloudy
6:53 PM 43.0 °F 37.2 °F 28.9 °F 58% 30.18 in 10.0 mi NW 10.4 mph - N/A   Overcast
7:53 PM 37.0 °F 33.3 °F 28.9 °F 73% 30.20 in 10.0 mi WSW 4.6 mph - N/A   Partly Cloudy
8:53 PM 34.0 °F 26.6 °F 28.9 °F 82% 30.21 in 10.0 mi South 9.2 mph - N/A   Clear
9:53 PM 30.0 °F 24.1 °F 27.0 °F 88% 30.23 in 10.0 mi SSW 5.8 mph - N/A   Clear
10:53 PM 33.1 °F 26.1 °F 28.9 °F 85% 30.21 in 10.0 mi SSW 8.1 mph - N/A   Clear
11:53 PM 30.9 °F 23.5 °F 28.0 °F 89% 30.19 in 10.0 mi South 8.1 mph - N/A   Scattered Clouds